Omaha Millard, NE

12:16 AM CST on December 12, 2017 (GMT -0600)
Millard Municipal

Weather History for KMLE - December, 2012

Change the Weather History Date:

Saturday, December 1, 2012

  Actual Average (KOFF) Record (KOFF)
Temperature  
Mean Temperature 43 °F -  
Max Temperature 56 °F 42 °F 69 °F (1998)
Min Temperature 30 °F 25 °F 8 °F (2006)
Degree Days  
Heating Degree Days 22    
Moisture  
Dew Point 44 °F    
Average Humidity 98    
Maximum Humidity 100    
Minimum Humidity 87    
Precipitation  
Precipitation 0.00 in - - ()
Sea Level Pressure  
Sea Level Pressure 29.84 in    
Wind  
Wind Speed 1 mph (SSE)    
Max Wind Speed 7 mph    
Max Gust Speed -    
Visibility 2 miles    
Events Fog    
Averages and records for this station are not official NWS values.
T = Trace of Precipitation, MM = Missing Value Source: NWS Daily Summary

Daily Weather History Graph

Daily Weather History Graph

Search for Another Location

Airport or City:

Trip Planner

Search our weather history database for the weather conditions in past years. The results will help you decide how hot, cold, wet, or windy it might be!

Date:

Astronomy

Dec. 01, 2012 Rise Set
Actual Time 7:31 AM CST 4:56 PM CST
Civil Twilight 7:00 AM CST 5:26 PM CST
Nautical Twilight 6:26 AM CST 6:01 PM CST
Astronomical Twilight 5:52 AM CST 6:34 PM CST
Moon 7:47 PM CST (12/1) 9:44 AM CST (12/1)
Length of Visible Light 10h 26m
Length of Day
9h 25m
Waning Gibbous, 91% of the Moon is Illuminated
Dec 1
Waning Gibbous
Dec 6
Last Quarter
Dec 13
New
Dec 19
First Quarter
Dec 28
Full

Hourly Weather History & Observations

Time (CST) Temp. Windchill Dew Point Humidity Pressure Visibility Wind Dir Wind Speed Gust Speed Precip Events Conditions
12:15 AM 31.8 °F - 30.0 °F 93% 29.97 in 5.0 mi Calm Calm - N/A   Clear
12:35 AM 31.6 °F - 30.2 °F 94% 29.96 in 5.0 mi Calm Calm - N/A   Clear
12:55 AM 30.9 °F - 29.8 °F 96% 29.96 in 4.0 mi Calm Calm - N/A   Clear
1:15 AM 31.5 °F - 30.4 °F 96% 29.94 in 4.0 mi Calm Calm - N/A   Clear
1:35 AM 31.5 °F - 30.6 °F 96% 29.94 in 4.0 mi Calm Calm - N/A   Clear
1:55 AM 31.8 °F - 31.1 °F 97% 29.93 in 4.0 mi Calm Calm - N/A   Mostly Cloudy
2:15 AM 32.5 °F - 32.0 °F 98% 29.92 in 4.0 mi Calm Calm - N/A   Overcast
2:55 AM 37.0 °F 34.5 °F 34.7 °F 91% 29.90 in 5.0 mi SE 3.5 mph - N/A   Overcast
3:35 AM 38.8 °F 36.5 °F 35.2 °F 87% 29.89 in 7.0 mi ESE 3.5 mph - N/A   Overcast
4:15 AM 40.1 °F - 36.5 °F 87% 29.88 in 7.0 mi Calm Calm - N/A   Overcast
4:35 AM 41.2 °F 39.2 °F 37.6 °F 87% 29.88 in 7.0 mi SE 3.5 mph - N/A   Overcast
4:55 AM 41.9 °F - 38.5 °F 88% 29.88 in 7.0 mi Calm Calm - N/A   Overcast
5:15 AM 42.1 °F - 39.2 °F 90% 29.86 in 5.0 mi Calm Calm - N/A   Overcast
6:35 AM 42.8 °F - 42.8 °F 100% 29.86 in 0.2 mi Calm Calm - N/A Fog Fog
6:55 AM 43.0 °F 41.3 °F 42.8 °F 99% 29.86 in 0.2 mi SE 3.5 mph - N/A Fog Fog
7:15 AM 43.7 °F 42.1 °F 43.7 °F 100% 29.86 in 0.2 mi SSE 3.5 mph - N/A Fog Fog
7:35 AM 44.1 °F - 44.1 °F 100% 29.86 in 0.2 mi Calm Calm - N/A Fog Fog
8:15 AM 44.4 °F - 44.4 °F 100% 29.85 in 0.2 mi Calm Calm - N/A Fog Fog
8:35 AM 45.5 °F - 45.5 °F 100% 29.85 in 0.2 mi Calm Calm - N/A Fog Fog
9:15 AM 45.9 °F - 45.9 °F 100% 29.86 in 0.2 mi Calm Calm - N/A Fog Fog
9:35 AM 46.4 °F - 46.4 °F 100% 29.86 in 0.2 mi Calm Calm - N/A Fog Fog
10:15 AM 47.8 °F - 47.8 °F 100% 29.86 in 0.2 mi Calm Calm - N/A Fog Fog
10:35 AM 48.4 °F - 48.4 °F 100% 29.85 in 0.2 mi Calm Calm - N/A Fog Fog
10:55 AM 49.1 °F - 49.1 °F 100% 29.85 in 0.2 mi SE 3.5 mph - N/A Fog Fog
11:15 AM 49.8 °F - 49.8 °F 100% 29.84 in 0.2 mi Calm Calm - N/A Fog Fog
11:35 AM 50.4 °F - 50.4 °F 100% 29.83 in 0.2 mi SSE 3.5 mph - N/A Fog Fog
11:55 AM 51.1 °F - 51.1 °F 100% 29.83 in 0.5 mi Calm Calm - N/A Fog Fog
12:15 PM 51.8 °F - 51.8 °F 100% 29.81 in 0.8 mi Calm Calm - N/A   Overcast
12:35 PM 52.7 °F - 52.7 °F 100% 29.80 in 1.2 mi SSE 5.8 mph - N/A   Overcast
12:55 PM 53.2 °F - 53.2 °F 100% 29.78 in 1.8 mi SSE 5.8 mph - N/A   Overcast
1:15 PM 54.1 °F - 54.1 °F 100% 29.76 in 1.8 mi SSE 6.9 mph - N/A   Overcast
1:35 PM 54.7 °F - 54.7 °F 100% 29.77 in 2.0 mi Calm Calm - N/A   Overcast
1:55 PM 55.4 °F - 55.4 °F 100% 29.77 in 2.5 mi SSW 4.6 mph - N/A   Overcast
2:15 PM 55.6 °F - 55.4 °F 99% 29.76 in 4.0 mi South 4.6 mph - N/A   Overcast
2:35 PM 55.9 °F - 55.4 °F 98% 29.76 in 4.0 mi SSW 4.6 mph - N/A   Overcast
2:55 PM 56.3 °F - 55.4 °F 97% 29.76 in 5.0 mi SW 4.6 mph - N/A   Overcast
3:15 PM 55.6 °F - 54.7 °F 97% 29.77 in 4.0 mi West 5.8 mph - N/A   Overcast
3:35 PM 56.5 °F - 53.8 °F 91% 29.76 in 4.0 mi SSW 3.5 mph - N/A   Scattered Clouds
4:15 PM 56.3 °F - 53.6 °F 91% 29.79 in 3.0 mi WNW 3.5 mph - N/A   Mostly Cloudy
4:35 PM 55.9 °F - 53.6 °F 92% 29.79 in 3.0 mi Calm Calm - N/A   Scattered Clouds
4:55 PM 53.8 °F - 52.0 °F 94% 29.79 in 2.5 mi Calm Calm - N/A   Clear
5:15 PM 51.3 °F - 50.5 °F 97% 29.81 in 0.5 mi Calm Calm - N/A Fog Fog
5:35 PM 48.9 °F - 48.6 °F 99% 29.81 in 0.5 mi Calm Calm - N/A Fog Fog
5:55 PM 46.9 °F - 46.6 °F 99% 29.81 in 0.8 mi Calm Calm - N/A   Mist
6:15 PM 46.6 °F - 46.2 °F 99% 29.81 in 0.2 mi Calm Calm - N/A Fog Fog
6:35 PM 44.6 °F - 44.4 °F 99% 29.81 in 0.2 mi Calm Calm - N/A Fog Fog
6:55 PM 43.7 °F - 43.7 °F 100% 29.82 in 0.2 mi Calm Calm - N/A Fog Fog
7:15 PM 44.4 °F - 44.4 °F 100% 29.82 in 0.2 mi Calm Calm - N/A Fog Fog
7:35 PM 42.3 °F - 42.3 °F 100% 29.82 in 0.2 mi Calm Calm - N/A Fog Fog
7:55 PM 41.0 °F - 41.0 °F 100% 29.82 in 0.2 mi Calm Calm - N/A Fog Fog
8:15 PM 40.3 °F - 40.3 °F 100% 29.83 in 0.2 mi Calm Calm - N/A Fog Fog
8:35 PM 41.2 °F - 41.2 °F 100% 29.83 in 0.2 mi Calm Calm - N/A Fog Fog
8:55 PM 40.3 °F - 40.3 °F 100% 29.83 in 0.2 mi Calm Calm - N/A Fog Fog
9:15 PM 38.8 °F - 38.8 °F 100% 29.83 in 0.2 mi Calm Calm - N/A Fog Fog
9:35 PM 39.0 °F - 39.0 °F 100% 29.84 in 0.2 mi Calm Calm - N/A Fog Fog
9:55 PM 37.9 °F - 37.9 °F 100% 29.84 in 0.2 mi Calm Calm - N/A Fog Fog
10:15 PM 37.4 °F - 37.4 °F 100% 29.85 in 0.2 mi Calm Calm - N/A Fog Fog
10:35 PM 37.2 °F - 37.2 °F 100% 29.85 in 0.2 mi Calm Calm - N/A Fog Fog
10:55 PM 37.0 °F - 37.0 °F 100% 29.85 in 0.2 mi Calm Calm - N/A Fog Fog
11:15 PM 37.4 °F - 37.4 °F 100% 29.86 in 0.2 mi Calm Calm - N/A Fog Fog
11:35 PM 36.7 °F - 36.7 °F 100% 29.86 in 0.2 mi Calm Calm - N/A Fog Fog
11:55 PM 36.5 °F - 36.5 °F 100% 29.87 in 0.2 mi Calm Calm - N/A Fog Fog